{"data":{"norad_id":63510,"epoch":"2026-05-25T00:51:52.882272Z","epoch_age_seconds":82596,"freshness":"FRESH","line1":"1 63510U 25071T   26145.03602873  .00012474  00000+0  43251-3 0  9992","line2":"2 63510  53.1563 145.6334 0001412  92.7334 267.3828 15.30204316 64430","mean_motion":15.30204316,"eccentricity":0.0001412,"inclination_deg":53.1563,"raan_deg":145.6334,"arg_perigee_deg":92.7334,"mean_anomaly_deg":267.3828,"bstar":0.00043251,"rev_number":6443,"period_min":94.105080278704,"perigee_km":474.23449115899,"apogee_km":476.16987414417,"semimajor_km":6853.3391826516,"source":"CELESTRAK","updated_at":"2026-05-25T13:38:20.015464Z"}}